Regional Weather Roundup
Issued by NWS

Home | Current Version | Previous Version | Graphics & Text | Print | Product List | Glossary On
Versions: 1 2 3 4 5 6 7 8 9 10 11 12 13 14 15 16 17 18 19 20 21 22 23 24 25 26 27 28 29 30 31 32 33 34 35 36 37 38 39 40 41 42 43 44 45 46 47 48 49 50
000
ASUS43 KFSD 162310
RWRSD

WEATHER ROUNDUP FOR SOUTH DAKOTA
NATIONAL WEATHER SERVICE SIOUX FALLS SD
600 PM CDT TUE SEP 16 2014

NOTE: "FAIR" INDICATES FEW OR NO CLOUDS BELOW 12,000 FEET WITH NO
SIGNIFICANT WEATHER AND/OR OBSTRUCTIONS TO VISIBILITY.


SDZ001>005-009-010-012>017-170000-
NORTHWEST AND NORTH CENTRAL SOUTH DAKOTA

CITY           SKY/WX    TMP DP  RH WIND       PRES   REMARKS
BUFFALO          N/A     78  45  30 NW6       29.88F
FAITH            N/A     78  47  33 E3        29.92F
MOBRIDGE       SUNNY     74  51  44 CALM      29.89F
$$

SDZ012>016-024>037-041>051-057-063-072>074-170000-
SOUTHWEST AND SOUTH CENTRAL SOUTH DAKOTA

CITY           SKY/WX    TMP DP  RH WIND       PRES   REMARKS
RAPID CTY ARPT MOSUNNY   80  46  30 SE7       29.95F
PIERRE         MOSUNNY   78  51  38 NW3       29.89F
CUSTER         SUNNY     77  31  18 W10G18    30.08F
ELLSWORTH AFB  MOSUNNY   80  47  30 VRB2      29.95F
PHILIP         SUNNY     79  49  34 E5        29.91F
PINE RIDGE     SUNNY     81  47  30 VRB3      29.96F
WINNER         FAIR      79  54  41 CALM      29.92F
$$

SDZ004>011-016>023-039-040-170000-
NORTHEAST SOUTH DAKOTA

CITY           SKY/WX    TMP DP  RH WIND       PRES   REMARKS
ABERDEEN       SUNNY     70  54  56 S8        29.92F
WATERTOWN      SUNNY     67  51  56 S12G22    29.96F
SISSETON         N/A     69  49  48 S10       29.93F
$$

SDZ017-020-022-023-036>040-048>070-170000-
SOUTHEAST SOUTH DAKOTA

CITY           SKY/WX    TMP DP  RH WIND       PRES   REMARKS
SIOUX FALLS    MOSUNNY   68  49  50 S15       29.99F
HURON          SUNNY     73  54  51 S10       29.92F
CHAMBERLAIN    SUNNY     75  58  55 S6        29.91F
MITCHELL       CLOUDY    72  56  57 S15       29.94F
YANKTON        PTSUNNY   68  52  56 S12       29.98F
$$

ABBREVIATIONS USED IN REMARKS
   TC - TEMPERATURE IN CELSIUS
  WCI - WIND CHILL INDEX
   HX - HEAT INDEX
  VSB - VISIBILITY




USA.gov is the U.S. government's official web portal to all federal, state and local government web resources and services.